TimeCDT,TemperatureF,Dew PointF,Humidity,Sea Level PressureIn,VisibilityMPH,Wind Direction,Wind SpeedMPH,Gust SpeedMPH,PrecipitationIn,Events,Conditions,WindDirDegrees,DateUTC
12:15 AM,84.6,72.5,67,30.00,10.0,South,5.8,-,N/A,,Clear,180,2013-07-10 05:15:00
12:35 AM,84.2,72.5,68,30.00,10.0,South,3.5,-,N/A,,Clear,180,2013-07-10 05:35:00
12:55 AM,83.7,72.5,69,29.99,10.0,South,5.8,-,N/A,,Clear,170,2013-07-10 05:55:00
1:15 AM,82.9,72.5,71,29.99,10.0,South,4.6,-,N/A,,Clear,180,2013-07-10 06:15:00
1:35 AM,82.9,72.9,71,29.99,10.0,South,4.6,-,N/A,,Clear,180,2013-07-10 06:35:00
1:55 AM,82.9,72.9,71,29.99,10.0,South,4.6,-,N/A,,Clear,190,2013-07-10 06:55:00
2:15 AM,82.8,73.0,72,29.99,10.0,South,3.5,-,N/A,,Clear,180,2013-07-10 07:15:00
2:55 AM,81.9,73.0,74,29.99,10.0,South,3.5,-,N/A,,Clear,180,2013-07-10 07:55:00
3:15 AM,81.7,73.2,75,29.97,10.0,SSE,4.6,-,N/A,,Clear,160,2013-07-10 08:15:00
3:35 AM,81.7,73.2,75,29.97,10.0,South,3.5,-,N/A,,Clear,170,2013-07-10 08:35:00
3:55 AM,80.4,72.7,77,29.97,10.0,Calm,Calm,-,N/A,,Clear,0,2013-07-10 08:55:00
4:15 AM,80.1,73.2,80,29.97,10.0,Calm,Calm,-,N/A,,Clear,0,2013-07-10 09:15:00
4:35 AM,80.6,73.4,79,29.96,10.0,Calm,Calm,-,N/A,,Clear,0,2013-07-10 09:35:00
4:55 AM,79.9,73.2,80,29.96,10.0,South,3.5,-,N/A,,Clear,190,2013-07-10 09:55:00
5:15 AM,79.9,73.4,80,29.96,10.0,South,4.6,-,N/A,,Clear,170,2013-07-10 10:15:00
5:35 AM,79.7,73.2,80,29.96,10.0,South,4.6,-,N/A,,Clear,190,2013-07-10 10:35:00
5:55 AM,79.7,73.4,81,29.96,10.0,South,4.6,-,N/A,,Clear,180,2013-07-10 10:55:00
6:15 AM,79.9,73.6,81,29.97,10.0,SSW,5.8,-,N/A,,Scattered Clouds,210,2013-07-10 11:15:00
6:35 AM,80.2,73.8,81,29.99,10.0,SSW,5.8,-,N/A,,Overcast,210,2013-07-10 11:35:00
6:55 AM,81.0,73.9,79,30.00,10.0,SW,6.9,-,N/A,,Mostly Cloudy,220,2013-07-10 11:55:00
7:15 AM,81.7,73.9,77,30.00,10.0,SSW,5.8,-,N/A,,Scattered Clouds,200,2013-07-10 12:15:00
7:35 AM,82.9,74.3,75,30.00,10.0,SW,4.6,-,N/A,,Clear,220,2013-07-10 12:35:00
7:55 AM,-9999,-9999,N/A,-9999,-9999.0,North,-9999.0,-,N/A,,Unknown,0,2013-07-10 12:55:00
8:15 AM,83.8,74.3,73,30.00,10.0,WSW,4.6,-,0.10,,Scattered Clouds,240,2013-07-10 13:15:00
8:35 AM,83.8,74.3,73,30.00,10.0,WSW,6.9,-,0.10,,Clear,250,2013-07-10 13:35:00
8:55 AM,84.2,74.1,72,29.99,10.0,West,5.8,-,0.10,,Clear,260,2013-07-10 13:55:00
9:15 AM,83.8,73.6,71,29.99,10.0,SW,8.1,-,N/A,,Scattered Clouds,230,2013-07-10 14:15:00
9:35 AM,83.3,73.4,72,29.97,10.0,WSW,5.8,-,N/A,,Mostly Cloudy,240,2013-07-10 14:35:00
9:55 AM,84.2,73.6,70,29.97,10.0,SW,4.6,-,N/A,,Scattered Clouds,220,2013-07-10 14:55:00
10:15 AM,84.2,73.0,69,29.99,10.0,West,6.9,-,N/A,,Clear,280,2013-07-10 15:15:00
10:35 AM,84.2,72.5,68,30.00,10.0,West,8.1,-,N/A,,Clear,280,2013-07-10 15:35:00
10:55 AM,83.8,72.0,67,30.01,10.0,West,9.2,-,N/A,,Clear,280,2013-07-10 15:55:00
11:15 AM,84.2,71.1,65,30.01,10.0,West,4.6,-,N/A,,Clear,280,2013-07-10 16:15:00
11:35 AM,85.8,71.1,61,30.02,10.0,WNW,6.9,-,N/A,,Clear,300,2013-07-10 16:35:00
11:55 AM,86.9,71.8,61,30.02,10.0,West,6.9,-,N/A,,Clear,280,2013-07-10 16:55:00
12:15 PM,85.5,70.2,60,30.01,10.0,West,4.6,-,N/A,,Clear,270,2013-07-10 17:15:00
12:35 PM,85.6,69.1,58,29.99,10.0,Calm,Calm,-,N/A,,Clear,0,2013-07-10 17:35:00
12:55 PM,85.5,69.4,59,29.99,10.0,West,4.6,-,N/A,,Clear,260,2013-07-10 17:55:00
1:15 PM,85.3,70.5,61,29.98,10.0,SSW,3.5,-,N/A,,Clear,200,2013-07-10 18:15:00
1:35 PM,85.5,70.2,60,29.96,10.0,South,4.6,-,N/A,,Clear,170,2013-07-10 18:35:00
1:55 PM,85.6,71.6,63,29.95,10.0,South,5.8,-,N/A,,Clear,180,2013-07-10 18:55:00
2:15 PM,86.9,73.2,64,29.96,10.0,WNW,5.8,-,N/A,,Clear,290,2013-07-10 19:15:00
2:35 PM,89.8,71.6,55,29.96,10.0,NNW,5.8,-,N/A,,Clear,330,2013-07-10 19:35:00
2:55 PM,90.1,70.9,53,29.95,10.0,NW,3.5,-,N/A,,Clear,310,2013-07-10 19:55:00
3:15 PM,90.5,71.1,53,29.93,10.0,West,5.8,-,N/A,,Clear,280,2013-07-10 20:15:00
3:35 PM,90.5,72.1,55,29.93,10.0,WNW,6.9,-,N/A,,Clear,300,2013-07-10 20:35:00
3:55 PM,90.1,72.0,55,29.93,10.0,West,10.4,-,N/A,,Clear,280,2013-07-10 20:55:00
4:15 PM,89.8,70.2,52,29.92,10.0,WNW,8.1,-,N/A,,Clear,290,2013-07-10 21:15:00
4:35 PM,90.3,71.6,54,29.91,10.0,NW,8.1,-,N/A,,Clear,310,2013-07-10 21:35:00
4:55 PM,89.2,72.1,57,29.91,10.0,WNW,11.5,-,N/A,,Clear,290,2013-07-10 21:55:00
5:15 PM,89.4,70.0,53,29.91,10.0,WNW,6.9,-,N/A,,Clear,300,2013-07-10 22:15:00
5:35 PM,89.2,70.5,54,29.91,10.0,WNW,6.9,-,N/A,,Clear,290,2013-07-10 22:35:00
5:55 PM,89.6,72.0,56,29.91,10.0,West,4.6,-,N/A,,Clear,280,2013-07-10 22:55:00
6:15 PM,89.4,71.8,56,29.91,10.0,WNW,5.8,-,N/A,,Clear,290,2013-07-10 23:15:00
6:35 PM,89.1,72.0,57,29.91,10.0,North,5.8,-,N/A,,Clear,360,2013-07-10 23:35:00
6:55 PM,88.7,72.0,58,29.91,10.0,North,5.8,-,N/A,,Clear,350,2013-07-10 23:55:00
7:15 PM,87.6,72.7,61,29.91,10.0,Calm,Calm,-,N/A,,Scattered Clouds,0,2013-07-11 00:15:00
7:35 PM,86.0,72.1,63,29.92,10.0,North,3.5,-,N/A,,Scattered Clouds,10,2013-07-11 00:35:00
7:55 PM,85.8,72.3,64,29.92,10.0,Calm,Calm,-,N/A,,Mostly Cloudy,0,2013-07-11 00:55:00
8:15 PM,84.2,72.3,67,29.93,10.0,Calm,Calm,-,N/A,,Mostly Cloudy,0,2013-07-11 01:15:00
8:35 PM,83.8,73.2,70,29.93,10.0,Calm,Calm,-,N/A,,Overcast,0,2013-07-11 01:35:00
8:55 PM,82.8,73.8,74,29.93,10.0,NE,3.5,-,N/A,,Overcast,40,2013-07-11 01:55:00
9:15 PM,83.3,73.2,71,29.95,10.0,Calm,Calm,-,N/A,,Mostly Cloudy,0,2013-07-11 02:15:00
9:35 PM,81.9,73.0,74,29.95,10.0,Calm,Calm,-,N/A,,Scattered Clouds,0,2013-07-11 02:35:00
9:55 PM,80.6,73.6,79,29.95,10.0,Calm,Calm,-,N/A,,Mostly Cloudy,0,2013-07-11 02:55:00
10:15 PM,80.2,73.8,81,29.95,10.0,Calm,Calm,-,N/A,,Mostly Cloudy,0,2013-07-11 03:15:00
10:35 PM,79.9,73.4,80,29.95,10.0,Calm,Calm,-,N/A,,Scattered Clouds,0,2013-07-11 03:35:00
10:55 PM,79.2,73.4,82,29.95,10.0,Calm,Calm,-,N/A,,Scattered Clouds,0,2013-07-11 03:55:00
11:15 PM,79.5,74.3,84,29.95,10.0,Calm,Calm,-,N/A,,Mostly Cloudy,0,2013-07-11 04:15:00
11:35 PM,79.2,74.1,84,29.95,10.0,ENE,3.5,-,N/A,,Mostly Cloudy,60,2013-07-11 04:35:00
11:55 PM,79.0,73.8,84,29.95,10.0,Calm,Calm,-,N/A,,Scattered Clouds,0,2013-07-11 04:55:00